Cloud_Cover
21 12 94 100 100 90 90 78 100 100 100 100 97 37 39 84 100 100 84 64 87 100 100 100 100 100 100 100 63 78 99 100 100 100 100 100 100 100 97 100 100 96 33 17 5
100 59 68 100 100 100 100 100 100 100 100 100 98 17 27 8 60 14 12 89 100 60 100 100 100 100 100 100 100 99 80 100 100 100 100 100 100 100 79 93 100 100 67 100 42
99 95 100 100 100 100 100 100 100 100 100 8 4 14 7 26 24 0 0 2 45 66 58 94 100 100 100 100 100 100 100 99 99 100 100 100 100 100 100 100 100 47 100 100 59
100 100 100 100 100 100 100 100 100 98 100 64 10 6 0 19 0 0 0 0 0 3 23 85 100 100 100 100 100 100 100 100 100 83 100 100 100 100 22 100 100 100 100 100 48
89 100 100 100 100 100 100 100 100 100 100 100 69 15 1 0 0 0 0 0 0 0 0 2 11 54 100 100 100 99 52 86 100 100 100 100 100 100 100 95 100 95 100 100 100
25 93 100 100 100 100 100 100 100 100 100 100 36 28 0 0 0 0 0 0 0 0 0 0 0 0 1 7 56 98 99 100 98 100 100 100 100 100 100 100 100 100 83 17 26
5 18 41 100 100 100 100 100 66 65 100 100 24 8 0 0 0 0 0 0 0 0 0 0 0 0 0 0 0 0 4 31 87 28 5 16 99 44 98 32 66 100 100 100 38
5 7 20 52 93 100 45 34 34 28 100 100 10 0 0 0 0 0 0 0 0 0 0 0 0 0 0 0 0 0 0 0 0 3 35 5 32 33 37 1 3 20 100 100 100
100 75 23 55 24 92 64 7 12 15 40 11 2 0 0 0 0 0 0 0 0 0 0 0 0 0 0 0 0 0 0 0 0 0 0 0 2 3 0 0 0 0 0 39 8
98 99 98 97 63 84 34 100 54 6 5 5 10 15 0 0 0 0 0 0 0 0 0 0 0 0 0 0 0 0 0 0 0 0 0 0 0 0 0 0 0 1 0 0 0
100 100 100 100 95 81 33 76 83 74 42 5 7 31 7 0 0 0 0 0 0 0 0 0 0 0 0 0 0 0 0 0 0 0 0 0 0 0 0 0 0 0 0 0 0
100 100 100 100 100 97 69 99 100 83 100 54 9 10 26 5 5 1 0 0 0 0 0 1 0 0 0 0 0 0 0 0 0 0 0 0 0 0 0 0 0 0 0 0 0
100 100 100 100 100 100 100 100 32 30 98 95 39 81 48 44 5 5 5 5 2 3 0 5 0 0 0 0 0 0 0 0 0 0 0 0 0 0 0 0 0 0 0 0 0
100 100 100 100 100 100 100 100 100 88 84 100 92 66 83 79 96 86 23 10 8 5 5 3 0 0 0 2 0 5 0 0 0 0 0 0 0 0 0 0 0 0 0 0 0
100 100 100 100 100 100 100 98 100 100 100 90 100 98 37 19 86 95 100 7 99 64 34 5 5 5 0 0 0 0 5 3 0 0 0 0 0 89 4 0 0 0 0 0 0
93 81 100 100 100 100 100 100 100 100 100 100 100 100 94 66 42 100 100 98 35 98 11 43 5 41 8 3 0 0 0 4 1 5 3 4 0 40 36 76 100 12 4 0 0
5 8 5 25 100 100 100 100 100 100 99 100 100 100 100 100 74 100 74 100 100 93 87 98 94 32 5 5 59 25 12 32 10 5 3 31 0 5 15 57 100 21 5 3 0
5 5 5 5 75 99 100 100 100 100 88 100 100 100 100 100 100 86 82 69 46 73 100 100 100 100 99 90 48 75 54 92 82 34 5 6 2 5 6 46 15 74 21 0 0
5 5 5 5 6 93 100 100 100 100 100 100 100 100 100 100 100 100 100 100 100 97 100 100 100 100 100 100 80 69 99 70 58 12 18 44 5 5 76 60 39 5 0 0 0
8 5 5 5 87 100 100 100 100 100 100 100 100 100 100 100 100 100 100 100 100 71 88 100 98 100 83 100 100 100 100 47 100 100 71 5 5 4 5 5 1 3 3 4 4
35 5 5 5 49 90 100 100 100 100 100 100 100 100 100 100 100 100 100 99 96 88 99 91 86 100 99 100 100 100 100 78 94 100 100 83 5 54 1 0 0 5 21 8 22
45 5 5 36 17 91 100 100 100 100 100 100 100 100 100 100 100 100 100 100 100 98 69 100 100 100 98 100 80 100 100 93 62 92 100 94 34 0 0 0 0 3 1 0 1
28 5 5 61 58 65 57 100 100 100 100 100 100 100 100 100 100 100 100 100 100 86 100 99 80 76 100 100 63 99 78 100 87 100 94 69 7 0 0 0 38 12 1 7 1
5 5 8 47 53 91 86 100 100 100 100 100 100 100 100 100 100 100 100 100 100 99 78 77 85 100 100 100 91 77 100 100 99 87 5 34 0 0 12 52 3 74 6 12 68
59 62 20 12 61 60 89 99 100 100 100 100 100 100 100 100 100 100 97 100 100 99 98 100 83 70 100 86 52 98 80 100 84 12 35 3 0 0 5 6 94 5 7 100 100
74 99 98 93 96 78 19 100 100 100 100 100 100 100 100 100 100 100 100 92 100 97 87 99 7 37 100 87 99 23 89 42 39 5 5 4 8 73 8 7 89 82 42 53 100
100 98 73 83 92 100 100 100 100 100 100 100 100 100 100 100 98 79 100 100 67 100 100 72 25 61 98 62 76 87 99 33 40 5 5 39 6 6 6 17 95 96 98 97 99